haerbin , China , ASIA

  • Saturday
    February 23

    Sunny  Sunny

    50 °F  21 °F

    Southwest  Southwest

    4~5L   4~5L 

  • Sunday
    February 24

    Cloudy  Cloudy

    43 °F  18 °F

    Northwest  Northwest

    4~5L   3~4L 

  • Monday
    February 25

    Sunny  Sunny

    39 °F  19 °F

    Northwest  Southwest

    3~4L    

  • Tuesday
    February 26

    Sunny  Cloudy

    41 °F  23 °F

    Southwest  Southwest

        

  • Wednesday
    February 27

    Cloudy  Cloudy

    46 °F  19 °F

    Southwest  Southwest

    3~4L    

  • Thursday
    February 28

    Sunny  Sunny

    50 °F  21 °F

    West  Northwest

        

  • Friday
    March 1

    Cloudy  Cloudy

    46 °F  23 °F

    West  West

        

Date   Weather Temperature Humidity Total_rain Visibility Wind
11:00 Sunny 44°F 63.3% 0mm 999.9km Southwest  3.7m/s
14:00 Sunny 50°F 60.7% 0mm 999.9km Southwest  4.9m/s
17:00 Sunny 46°F 59.5% 0mm 999.9km Southwest  4.5m/s
20:00 Sunny 42°F 63% 0mm 999.9km Southwest  5.7m/s
23:00 Sunny 42°F 65.9% 0mm 999.9km Southwest  3.6m/s
02:00 Sunny 34°F 72% 0mm 999.9km Northwest  4.3m/s
05:00 Sunny 22°F 74.7% 0mm 999.9km Northwest  2.9m/s
08:00 Sunny 22°F 67.7% 0mm 999.9km Northwest  3.1m/s
11:00 Cloudy 40°F 49.7% 0mm 999.9km Northwest  4.3m/s
14:00 Cloudy 42°F 57.9% 0mm 999.9km Northwest  4.5m/s
17:00 Cloudy 38°F 60.4% 0mm 999.9km Northwest  2.8m/s
20:00 Cloudy 31°F 68.8% 0mm 999.9km Southwest  2.1m/s
23:00 Cloudy 27°F 70.9% 0mm 999.9km Northwest  2.3m/s
02:00 Cloudy 23°F 76.1% 0mm 999.9km Northwest  2.0m/s
05:00 Cloudy 18°F 78.8% 0mm 999.9km Northwest  2.2m/s
08:00 Cloudy 21°F 75.2% 0mm 999.9km Northwest  2.3m/s
11:00 Sunny 33°F 50.9% 0mm 999.9km Northwest  3.0m/s
14:00 Sunny 39°F 61.2% 0mm 999.9km Northwest  3.7m/s
17:00 Sunny 34°F 64% 0mm 999.9km Northwest  2.3m/s
20:00 Sunny 23°F 72.2% 0mm 999.9km Southwest  1.9m/s
23:00 Sunny 23°F 73% 0mm 999.9km Southwest  2.2m/s
02:00 Sunny 23°F 78.3% 0mm 999.9km Southwest  2.4m/s
05:00 Sunny 20°F 82.6% 0mm 999.9km Southwest  1.9m/s
08:00 Sunny 20°F 81.5% 0mm 999.9km Southwest  2.7m/s
11:00 Sunny 37°F 48.4% 0mm 999.9km Southwest  1.6m/s
14:00 Sunny 41°F 57.7% 0mm 999.9km Southwest  2.6m/s
17:00 Sunny 36°F 61% 0mm 999.9km Southwest  2.1m/s
20:00 Sunny 33°F 65.7% 0mm 999.9km Southwest  1.9m/s
23:00 Cloudy 29°F 68.5% 0mm 999.9km Southwest  2.0m/s
02:00 Cloudy 26°F 72% 0mm 999.9km Southwest  2.3m/s
05:00 Cloudy 23°F 73.2% 0mm 999.9km Southwest  1.9m/s
08:00 Cloudy 31°F 69.1% 0mm 999.9km Southwest  2.5m/s
11:00 Cloudy 40°F 52.5% 0mm 999.9km Southwest  2.9m/s
14:00 Cloudy 46°F 60.4% 0mm 999.9km Southwest  3.7m/s
17:00 Cloudy 40°F 64.5% 0mm 999.9km Southwest  2.1m/s
20:00 Cloudy 31°F 66.7% 0mm 999.9km Southwest  2.1m/s
23:00 Cloudy 31°F 68.8% 0mm 999.9km Southwest  2.4m/s
02:00 Cloudy 28°F 69.5% 0mm 999.9km Southwest  2.0m/s
05:00 Cloudy 20°F 76.6% 0mm 999.9km Southwest  2.5m/s
08:00 Cloudy 24°F 68.8% 0mm 999.9km Southwest  2.5m/s
11:00 Sunny 40°F 62.4% 0mm 999.9km Southwest  4.2m/s
14:00 Sunny 50°F 62.8% 0mm 999.9km Southwest  3.6m/s
17:00 Sunny 42°F 63.2% 0mm 999.9km Northwest  2.6m/s
20:00 Sunny 31°F 66.3% 0mm 999.9km Southwest  2.5m/s
23:00 Sunny 29°F 76.2% 0mm 999.9km Northwest  2.0m/s
02:00 Sunny 28°F 72.4% 0mm 999.9km Southwest  1.4m/s
05:00 Sunny 22°F 72.5% 0mm 999.9km Northwest  1.9m/s
08:00 Sunny 22°F 72.6% 0mm 999.9km Southwest  1.5m/s
11:00 Cloudy 40°F 52.4% 0mm 999.9km Northwest  2.7m/s
14:00 Cloudy 46°F 62.6% 0mm 999.9km Southwest  3.2m/s
17:00 Cloudy 41°F 65.8% 0mm 999.9km Northwest  2.5m/s
20:00 Cloudy 33°F 73.1% 0mm 999.9km Southeast  1.9m/s
23:00 Cloudy 30°F 78.5% 0mm 999.9km Southeast  1.6m/s
02:00 Cloudy 27°F 79.7% 0mm 999.9km Southwest  2.0m/s
05:00 Cloudy 23°F 82.4% 0mm 999.9km Southwest  2.3m/s